| time (UTC) | temp C | wind direction | speed KPH | gust KPH | rain 1hr cm | rain 24hr cm | rain mn cm | humidity % | barometer mb |
| 20260831170503 | 36 | 144 | 3.2 | 11.3 | 0.00 | 0.00 | 0.00 | 48 | 1018.0 |
| 20260831170023 | 36 | 165 | 1.6 | 14.5 | 0.00 | 0.00 | 0.00 | 49 | 1018.0 |
| 20260831165506 | 35 | 157 | 1.6 | 14.5 | 0.00 | 0.00 | 0.00 | 49 | 1018.0 |
| 20260831165003 | 36 | 126 | 3.2 | 14.5 | 0.00 | 0.00 | 0.00 | 50 | 1018.1 |
| 20260831164520 | 36 | 190 | 1.6 | 14.5 | 0.00 | 0.00 | 0.00 | 49 | 1018.1 |
| 20260831164012 | 36 | 185 | 1.6 | 14.5 | 0.00 | 0.00 | 0.00 | 50 | 1018.2 |
| 20260831163508 | 36 | 138 | 3.2 | 12.9 | 0.00 | 0.00 | 0.00 | 48 | 1018.2 |
| 20260831163023 | 36 | 188 | 0.0 | 11.3 | 0.00 | 0.00 | 0.00 | 47 | 1018.2 |
| 20260831162510 | 36 | 154 | 0.0 | 11.3 | 0.00 | 0.00 | 0.00 | 50 | 1018.3 |
| 20260831162011 | 36 | 188 | 0.0 | 6.4 | 0.00 | 0.00 | 0.00 | 46 | 1018.4 |
| 20260831161531 | 36 | 197 | 0.0 | 11.3 | 0.00 | 0.00 | 0.00 | 46 | 1018.3 |
| 20260831161002 | 36 | 190 | 1.6 | 11.3 | 0.00 | 0.00 | 0.00 | 47 | 1018.3 |
| 20260831160504 | 36 | 174 | 0.0 | 11.3 | 0.00 | 0.00 | 0.00 | 47 | 1018.3 |
| 20260831160008 | 35 | 236 | 0.0 | 11.3 | 0.00 | 0.00 | 0.00 | 46 | 1018.3 |
| 20260831155513 | 35 | 215 | 0.0 | 8.0 | 0.00 | 0.00 | 0.00 | 47 | 1018.3 |
| 20260831155004 | 35 | 183 | 0.0 | 6.4 | 0.00 | 0.00 | 0.00 | 47 | 1018.2 |
| 20260831154558 | 35 | 278 | 0.0 | 11.3 | 0.00 | 0.00 | 0.00 | 47 | 1018.4 |
| 20260831154005 | 35 | 255 | 0.0 | 11.3 | 0.00 | 0.00 | 0.00 | 50 | 1018.3 |
| 20260831153508 | 35 | 253 | 1.6 | 11.3 | 0.00 | 0.00 | 0.00 | 48 | 1018.3 |
| 20260831153019 | 35 | 207 | 0.0 | 11.3 | 0.00 | 0.00 | 0.00 | 49 | 1018.3 |
| 20260831152508 | 34 | 272 | 0.0 | 11.3 | 0.00 | 0.00 | 0.00 | 53 | 1018.3 |
| 20260831152013 | 34 | 217 | 0.0 | 9.7 | 0.00 | 0.00 | 0.00 | 52 | 1018.3 |
| 20260831151524 | 33 | 235 | 0.0 | 9.7 | 0.00 | 0.00 | 0.00 | 51 | 1018.3 |
| 20260831151009 | 33 | 195 | 1.6 | 9.7 | 0.00 | 0.00 | 0.00 | 52 | 1018.3 |
| 20260831150512 | 33 | 232 | 0.0 | 11.3 | 0.00 | 0.00 | 0.00 | 53 | 1018.2 |
| 20260831150027 | 33 | 242 | 0.0 | 11.3 | 0.00 | 0.00 | 0.00 | 56 | 1018.2 |
| 20260831145503 | 33 | 225 | 0.0 | 8.0 | 0.00 | 0.00 | 0.00 | 56 | 1018.1 |
| 20260831145003 | 33 | 240 | 0.0 | 8.0 | 0.00 | 0.00 | 0.00 | 58 | 1018.1 |
| 20260831144507 | 33 | 241 | 0.0 | 8.0 | 0.00 | 0.00 | 0.00 | 58 | 1018.1 |
| 20260831144006 | 33 | 210 | 0.0 | 4.8 | 0.00 | 0.00 | 0.00 | 58 | 1018.1 |
| 20260831143503 | 32 | 240 | 0.0 | 11.3 | 0.00 | 0.00 | 0.00 | 60 | 1018.1 |
| 20260831143011 | 32 | 241 | 0.0 | 11.3 | 0.00 | 0.00 | 0.00 | 59 | 1018.1 |
| 20260831142505 | 32 | 220 | 0.0 | 1.6 | 0.00 | 0.00 | 0.00 | 61 | 1018.0 |
| 20260831142011 | 32 | 220 | 0.0 | 1.6 | 0.00 | 0.00 | 0.00 | 62 | 1017.9 |
| 20260831141517 | 32 | 220 | 0.0 | 4.8 | 0.00 | 0.00 | 0.00 | 62 | 1017.9 |
| 20260831141009 | 32 | 219 | 0.0 | 4.8 | 0.00 | 0.00 | 0.00 | 63 | 1018.1 |
| 20260831140510 | 32 | 217 | 0.0 | 3.2 | 0.00 | 0.00 | 0.00 | 63 | 1018.1 |
| 20260831140024 | 31 | 219 | 0.0 | 1.6 | 0.00 | 0.00 | 0.00 | 64 | 1018.0 |
| 20260831135511 | 31 | 215 | 0.0 | 3.2 | 0.00 | 0.00 | 0.00 | 65 | 1017.8 |
| 20260831135014 | 31 | 216 | 0.0 | 3.2 | 0.00 | 0.00 | 0.00 | 66 | 1017.8 |
| 20260831134532 | 31 | 212 | 0.0 | 6.4 | 0.00 | 0.00 | 0.00 | 66 | 1017.7 |
| 20260831134006 | 30 | 227 | 0.0 | 6.4 | 0.00 | 0.00 | 0.00 | 67 | 1017.6 |
| 20260831133502 | 30 | 198 | 0.0 | 4.8 | 0.00 | 0.00 | 0.00 | 68 | 1017.6 |
| 20260831133026 | 30 | 190 | 0.0 | 6.4 | 0.00 | 0.00 | 0.00 | 70 | 1017.6 |
| 20260831132509 | 29 | 190 | 0.0 | 6.4 | 0.00 | 0.00 | 0.00 | 70 | 1017.5 |
| 20260831132009 | 29 | 190 | 0.0 | 3.2 | 0.00 | 0.00 | 0.00 | 71 | 1017.3 |
| 20260831131517 | 28 | 184 | 0.0 | 3.2 | 0.00 | 0.00 | 0.00 | 71 | 1017.3 |
| 20260831131012 | 28 | 221 | 0.0 | 3.2 | 0.00 | 0.00 | 0.00 | 72 | 1017.3 |
| 20260831130510 | 28 | 198 | 0.0 | 1.6 | 0.00 | 0.00 | 0.00 | 73 | 1017.2 |
| 20260831130024 | 27 | 200 | 0.0 | 3.2 | 0.00 | 0.00 | 0.00 | 74 | 1017.1 |
| 20260831125510 | 27 | 200 | 0.0 | 3.2 | 0.00 | 0.00 | 0.00 | 75 | 1017.1 |
| 20260831125013 | 27 | 192 | 0.0 | 3.2 | 0.00 | 0.00 | 0.00 | 76 | 1017.1 |
| 20260831124527 | 26 | 185 | 0.0 | 1.6 | 0.00 | 0.00 | 0.00 | 76 | 1017.0 |
| 20260831124011 | 26 | 184 | 0.0 | 1.6 | 0.00 | 0.00 | 0.00 | 77 | 1017.0 |
| 20260831123516 | 26 | 184 | 0.0 | 0.0 | 0.00 | 0.00 | 0.00 | 77 | 1016.9 |
| 20260831123036 | 26 | 184 | 0.0 | 0.0 | 0.00 | 0.00 | 0.00 | 77 | 1016.8 |
| 20260831122503 | 26 | 184 | 0.0 | 0.0 | 0.00 | 0.00 | 0.00 | 77 | 1016.7 |
| 20260831122005 | 26 | 184 | 0.0 | 1.6 | 0.00 | 0.00 | 0.00 | 77 | 1016.7 |
| 20260831121512 | 26 | 184 | 0.0 | 1.6 | 0.00 | 0.00 | 0.00 | 76 | 1016.6 |
| 20260831121006 | 26 | 184 | 0.0 | 1.6 | 0.00 | 0.00 | 0.00 | 76 | 1016.6 |
| 20260831120508 | 26 | 184 | 0.0 | 1.6 | 0.00 | 0.00 | 0.00 | 76 | 1016.6 |
| 20260831120016 | 26 | 182 | 0.0 | 1.6 | 0.00 | 0.00 | 0.00 | 75 | 1016.6 |
| 20260831115510 | 26 | 182 | 0.0 | 1.6 | 0.00 | 0.00 | 0.00 | 75 | 1016.4 |
| 20260831115012 | 26 | 181 | 0.0 | 1.6 | 0.00 | 0.00 | 0.00 | 75 | 1016.4 |
| 20260831114526 | 26 | 181 | 0.0 | 3.2 | 0.00 | 0.00 | 0.00 | 75 | 1016.4 |
| 20260831114012 | 26 | 182 | 0.0 | 3.2 | 0.00 | 0.00 | 0.00 | 74 | 1016.3 |
| 20260831113520 | 26 | 180 | 0.0 | 1.6 | 0.00 | 0.00 | 0.00 | 74 | 1016.2 |
| 20260831113032 | 26 | 180 | 0.0 | 3.2 | 0.00 | 0.00 | 0.00 | 74 | 1016.2 |
| 20260831112515 | 26 | 180 | 0.0 | 3.2 | 0.00 | 0.00 | 0.00 | 74 | 1016.2 |
| 20260831112020 | 26 | 180 | 0.0 | 4.8 | 0.00 | 0.00 | 0.00 | 74 | 1016.0 |
| 20260831111530 | 26 | 180 | 0.0 | 4.8 | 0.00 | 0.00 | 0.00 | 74 | 1015.9 |
| 20260831111003 | 26 | 180 | 0.0 | 6.4 | 0.00 | 0.00 | 0.00 | 73 | 1015.9 |
| 20260831110507 | 26 | 180 | 0.0 | 6.4 | 0.00 | 0.00 | 0.00 | 73 | 1015.8 |
| 20260831110017 | 26 | 187 | 0.0 | 1.6 | 0.00 | 0.00 | 0.00 | 73 | 1015.8 |
| 20260831105507 | 26 | 187 | 0.0 | 4.8 | 0.00 | 0.00 | 0.00 | 72 | 1015.9 |
| 20260831105008 | 26 | 188 | 0.0 | 4.8 | 0.00 | 0.00 | 0.00 | 72 | 1015.9 |
| 20260831104524 | 26 | 190 | 0.0 | 1.6 | 0.00 | 0.00 | 0.00 | 72 | 1015.8 |
| 20260831104012 | 26 | 190 | 0.0 | 1.6 | 0.00 | 0.00 | 0.00 | 72 | 1015.8 |
| 20260831103512 | 26 | 190 | 0.0 | 1.6 | 0.00 | 0.00 | 0.00 | 71 | 1015.7 |
| 20260831103028 | 26 | 190 | 0.0 | 1.6 | 0.00 | 0.00 | 0.00 | 71 | 1015.8 |
| 20260831102514 | 26 | 190 | 0.0 | 1.6 | 0.00 | 0.00 | 0.00 | 71 | 1015.7 |
| 20260831102006 | 26 | 190 | 0.0 | 1.6 | 0.00 | 0.00 | 0.00 | 70 | 1015.7 |
| 20260831101508 | 27 | 190 | 0.0 | 1.6 | 0.00 | 0.00 | 0.00 | 70 | 1015.7 |
| 20260831101004 | 27 | 190 | 0.0 | 1.6 | 0.00 | 0.00 | 0.00 | 70 | 1015.8 |
| 20260831100503 | 27 | 190 | 0.0 | 1.6 | 0.00 | 0.00 | 0.00 | 70 | 1015.7 |
| 20260831100022 | 27 | 190 | 0.0 | 4.8 | 0.00 | 0.00 | 0.00 | 70 | 1015.8 |
| 20260831095503 | 27 | 190 | 0.0 | 6.4 | 0.00 | 0.00 | 0.00 | 69 | 1015.8 |
| 20260831095008 | 27 | 186 | 0.0 | 6.4 | 0.00 | 0.00 | 0.00 | 69 | 1015.8 |
| 20260831094521 | 27 | 186 | 0.0 | 4.8 | 0.00 | 0.00 | 0.00 | 69 | 1015.8 |
| 20260831094010 | 27 | 186 | 0.0 | 8.0 | 0.00 | 0.00 | 0.00 | 69 | 1015.7 |
| 20260831093510 | 27 | 184 | 0.0 | 8.0 | 0.00 | 0.00 | 0.00 | 69 | 1015.8 |
| 20260831093031 | 27 | 201 | 0.0 | 0.0 | 0.00 | 0.00 | 0.00 | 69 | 1015.6 |
| 20260831092517 | 27 | 202 | 0.0 | 0.0 | 0.00 | 0.00 | 0.00 | 68 | 1015.6 |
| 20260831092011 | 27 | 202 | 0.0 | 0.0 | 0.00 | 0.00 | 0.00 | 67 | 1015.6 |
| 20260831091526 | 27 | 202 | 0.0 | 0.0 | 0.00 | 0.00 | 0.00 | 67 | 1015.5 |
| 20260831091003 | 27 | 202 | 0.0 | 0.0 | 0.00 | 0.00 | 0.00 | 66 | 1015.5 |
| 20260831090504 | 27 | 202 | 0.0 | 0.0 | 0.00 | 0.00 | 0.00 | 66 | 1015.5 |
| 20260831090008 | 27 | 202 | 0.0 | 0.0 | 0.00 | 0.00 | 0.00 | 65 | 1015.5 |
| 20260831085503 | 27 | 210 | 0.0 | 0.0 | 0.00 | 0.00 | 0.00 | 65 | 1015.5 |
| 20260831085008 | 27 | 211 | 0.0 | 0.0 | 0.00 | 0.00 | 0.00 | 64 | 1015.5 |
| 20260831084515 | 27 | 211 | 0.0 | 0.0 | 0.00 | 0.00 | 0.00 | 64 | 1015.5 |
| 20260831084008 | 27 | 211 | 0.0 | 0.0 | 0.00 | 0.00 | 0.00 | 63 | 1015.5 |
| 20260831083508 | 27 | 211 | 0.0 | 0.0 | 0.00 | 0.00 | 0.00 | 63 | 1015.4 |
| 20260831083036 | 28 | 211 | 0.0 | 0.0 | 0.00 | 0.00 | 0.00 | 64 | 1015.3 |
| 20260831082509 | 28 | 211 | 0.0 | 0.0 | 0.00 | 0.00 | 0.00 | 63 | 1015.3 |
| 20260831082011 | 28 | 211 | 0.0 | 0.0 | 0.00 | 0.00 | 0.00 | 63 | 1015.3 |
| 20260831081528 | 28 | 211 | 0.0 | 0.0 | 0.00 | 0.00 | 0.00 | 63 | 1015.2 |
| 20260831081011 | 28 | 211 | 0.0 | 0.0 | 0.00 | 0.00 | 0.00 | 63 | 1015.2 |
| 20260831080511 | 28 | 211 | 0.0 | 0.0 | 0.00 | 0.00 | 0.00 | 63 | 1015.2 |
| 20260831080046 | 28 | 211 | 0.0 | 0.0 | 0.00 | 0.00 | 0.00 | 63 | 1015.2 |
| 20260831075504 | 28 | 200 | 0.0 | 0.0 | 0.00 | 0.00 | 0.00 | 64 | 1015.1 |
| 20260831075003 | 28 | 197 | 0.0 | 0.0 | 0.00 | 0.00 | 0.00 | 64 | 1015.1 |
| 20260831074514 | 28 | 197 | 0.0 | 0.0 | 0.00 | 0.00 | 0.00 | 65 | 1015.1 |
| 20260831074004 | 28 | 198 | 0.0 | 0.0 | 0.00 | 0.00 | 0.00 | 65 | 1015.1 |
| 20260831073506 | 28 | 198 | 0.0 | 0.0 | 0.00 | 0.00 | 0.00 | 65 | 1015.0 |
| 20260831073019 | 28 | 198 | 0.0 | 0.0 | 0.00 | 0.00 | 0.00 | 65 | 1015.0 |
| 20260831072509 | 28 | 198 | 0.0 | 0.0 | 0.00 | 0.00 | 0.00 | 65 | 1015.0 |
| 20260831072010 | 28 | 198 | 0.0 | 0.0 | 0.00 | 0.00 | 0.00 | 65 | 1014.9 |
| 20260831071522 | 28 | 198 | 0.0 | 0.0 | 0.00 | 0.00 | 0.00 | 65 | 1014.9 |
| 20260831071010 | 28 | 198 | 0.0 | 0.0 | 0.00 | 0.00 | 0.00 | 65 | 1014.8 |
| 20260831070512 | 28 | 198 | 0.0 | 0.0 | 0.00 | 0.00 | 0.00 | 64 | 1015.0 |
| 20260831070030 | 28 | 198 | 0.0 | 0.0 | 0.00 | 0.00 | 0.00 | 64 | 1015.0 |
| 20260831065514 | 28 | 198 | 0.0 | 0.0 | 0.00 | 0.00 | 0.00 | 64 | 1015.1 |
| 20260831065014 | 28 | 198 | 0.0 | 0.0 | 0.00 | 0.00 | 0.00 | 63 | 1015.1 |
| 20260831064530 | 28 | 198 | 0.0 | 0.0 | 0.00 | 0.00 | 0.00 | 63 | 1015.2 |
| 20260831064003 | 28 | 198 | 0.0 | 0.0 | 0.00 | 0.00 | 0.00 | 63 | 1015.2 |
| 20260831063504 | 28 | 198 | 0.0 | 0.0 | 0.00 | 0.00 | 0.00 | 62 | 1015.1 |
| 20260831063012 | 28 | 198 | 0.0 | 0.0 | 0.00 | 0.00 | 0.00 | 62 | 1015.1 |
| 20260831062508 | 28 | 198 | 0.0 | 0.0 | 0.00 | 0.00 | 0.00 | 62 | 1015.1 |
| 20260831062009 | 28 | 198 | 0.0 | 0.0 | 0.00 | 0.00 | 0.00 | 62 | 1015.1 |
| 20260831061517 | 28 | 198 | 0.0 | 0.0 | 0.00 | 0.00 | 0.00 | 62 | 1015.1 |
| 20260831061010 | 28 | 198 | 0.0 | 0.0 | 0.00 | 0.00 | 0.00 | 62 | 1015.0 |
| 20260831060512 | 28 | 198 | 0.0 | 0.0 | 0.00 | 0.00 | 0.00 | 61 | 1015.1 |
| 20260831060021 | 28 | 198 | 0.0 | 0.0 | 0.00 | 0.00 | 0.00 | 61 | 1015.1 |
| 20260831055510 | 29 | 198 | 0.0 | 0.0 | 0.00 | 0.00 | 0.00 | 60 | 1015.2 |
| 20260831055012 | 29 | 198 | 0.0 | 0.0 | 0.00 | 0.00 | 0.00 | 60 | 1015.2 |
| 20260831054530 | 29 | 198 | 0.0 | 0.0 | 0.00 | 0.00 | 0.00 | 60 | 1015.2 |
| 20260831054019 | 29 | 198 | 0.0 | 0.0 | 0.00 | 0.00 | 0.00 | 59 | 1015.1 |
| 20260831053516 | 29 | 198 | 0.0 | 0.0 | 0.00 | 0.00 | 0.00 | 59 | 1015.1 |
| 20260831053008 | 29 | 198 | 0.0 | 0.0 | 0.00 | 0.00 | 0.00 | 59 | 1015.1 |
| 20260831052504 | 29 | 198 | 0.0 | 0.0 | 0.00 | 0.00 | 0.00 | 59 | 1015.0 |
| 20260831052007 | 30 | 198 | 0.0 | 0.0 | 0.00 | 0.00 | 0.00 | 59 | 1015.0 |
| 20260831051515 | 30 | 198 | 0.0 | 0.0 | 0.00 | 0.00 | 0.00 | 59 | 1015.0 |
| 20260831051013 | 30 | 198 | 0.0 | 0.0 | 0.00 | 0.00 | 0.00 | 59 | 1014.9 |
| 20260831050508 | 30 | 198 | 0.0 | 0.0 | 0.00 | 0.00 | 0.00 | 58 | 1014.9 |
| 20260831050021 | 30 | 198 | 0.0 | 0.0 | 0.00 | 0.00 | 0.00 | 58 | 1014.9 |
| 20260831045508 | 30 | 198 | 0.0 | 0.0 | 0.00 | 0.00 | 0.00 | 58 | 1014.9 |
| 20260831045011 | 30 | 198 | 0.0 | 0.0 | 0.00 | 0.00 | 0.00 | 57 | 1014.9 |
| 20260831044526 | 30 | 198 | 0.0 | 0.0 | 0.00 | 0.00 | 0.00 | 57 | 1014.9 |
| 20260831044013 | 30 | 198 | 0.0 | 0.0 | 0.00 | 0.00 | 0.00 | 56 | 1014.9 |
| 20260831043512 | 30 | 198 | 0.0 | 0.0 | 0.00 | 0.00 | 0.00 | 56 | 1014.9 |
| 20260831043029 | 30 | 198 | 0.0 | 0.0 | 0.00 | 0.00 | 0.00 | 56 | 1014.9 |
| 20260831042515 | 30 | 198 | 0.0 | 0.0 | 0.00 | 0.00 | 0.00 | 55 | 1014.9 |
| 20260831042015 | 30 | 198 | 0.0 | 0.0 | 0.00 | 0.00 | 0.00 | 55 | 1014.8 |
| 20260831041512 | 31 | 198 | 0.0 | 0.0 | 0.00 | 0.00 | 0.00 | 55 | 1014.8 |
| 20260831041019 | 31 | 198 | 0.0 | 0.0 | 0.00 | 0.00 | 0.00 | 55 | 1014.8 |
| 20260831040507 | 31 | 198 | 0.0 | 0.0 | 0.00 | 0.00 | 0.00 | 54 | 1014.7 |
| 20260831040021 | 31 | 198 | 0.0 | 0.0 | 0.00 | 0.00 | 0.00 | 54 | 1014.7 |
| 20260831035511 | 31 | 198 | 0.0 | 0.0 | 0.00 | 0.00 | 0.00 | 54 | 1014.7 |
| 20260831035009 | 31 | 198 | 0.0 | 0.0 | 0.00 | 0.00 | 0.00 | 54 | 1014.6 |
| 20260831034523 | 31 | 198 | 0.0 | 0.0 | 0.00 | 0.00 | 0.00 | 54 | 1014.5 |
| 20260831034011 | 31 | 198 | 0.0 | 0.0 | 0.00 | 0.00 | 0.00 | 54 | 1014.5 |
| 20260831033513 | 31 | 198 | 0.0 | 0.0 | 0.00 | 0.00 | 0.00 | 54 | 1014.4 |
| 20260831033027 | 31 | 198 | 0.0 | 0.0 | 0.00 | 0.00 | 0.00 | 54 | 1014.4 |
| 20260831032514 | 31 | 198 | 0.0 | 0.0 | 0.00 | 0.00 | 0.00 | 54 | 1014.5 |
| 20260831032015 | 31 | 198 | 0.0 | 0.0 | 0.00 | 0.00 | 0.00 | 54 | 1014.5 |
| 20260831031530 | 31 | 198 | 0.0 | 0.0 | 0.00 | 0.00 | 0.00 | 54 | 1014.5 |
| 20260831031018 | 31 | 198 | 0.0 | 0.0 | 0.00 | 0.00 | 0.00 | 54 | 1014.5 |
| 20260831030520 | 31 | 198 | 0.0 | 0.0 | 0.00 | 0.00 | 0.00 | 54 | 1014.5 |
| 20260831030014 | 31 | 198 | 0.0 | 0.0 | 0.00 | 0.00 | 0.00 | 53 | 1014.5 |
| 20260831025515 | 32 | 198 | 0.0 | 0.0 | 0.00 | 0.00 | 0.00 | 53 | 1014.4 |
| 20260831025008 | 32 | 198 | 0.0 | 0.0 | 0.00 | 0.00 | 0.00 | 53 | 1014.4 |
| 20260831024519 | 32 | 198 | 0.0 | 0.0 | 0.00 | 0.00 | 0.00 | 53 | 1014.3 |
| 20260831024011 | 32 | 198 | 0.0 | 0.0 | 0.00 | 0.00 | 0.00 | 52 | 1014.3 |
| 20260831023512 | 32 | 198 | 0.0 | 1.6 | 0.00 | 0.00 | 0.00 | 52 | 1014.2 |
| 20260831023023 | 32 | 198 | 0.0 | 1.6 | 0.00 | 0.00 | 0.00 | 51 | 1014.1 |
| 20260831022514 | 32 | 198 | 0.0 | 1.6 | 0.00 | 0.00 | 0.00 | 51 | 1014.1 |
| 20260831022013 | 32 | 198 | 0.0 | 3.2 | 0.00 | 0.00 | 0.00 | 50 | 1014.0 |
| 20260831021536 | 32 | 198 | 0.0 | 3.2 | 0.00 | 0.00 | 0.00 | 49 | 1014.0 |
| 20260831021014 | 32 | 198 | 0.0 | 0.0 | 0.00 | 0.00 | 0.00 | 48 | 1013.9 |
| 20260831020517 | 32 | 198 | 0.0 | 0.0 | 0.00 | 0.00 | 0.00 | 48 | 1013.8 |
| 20260831020030 | 33 | 198 | 0.0 | 0.0 | 0.00 | 0.00 | 0.00 | 47 | 1013.8 |
| 20260831015516 | 33 | 198 | 0.0 | 0.0 | 0.00 | 0.00 | 0.00 | 47 | 1013.7 |
| 20260831015014 | 33 | 198 | 0.0 | 0.0 | 0.00 | 0.00 | 0.00 | 47 | 1013.6 |
| 20260831014520 | 33 | 198 | 0.0 | 1.6 | 0.00 | 0.00 | 0.00 | 46 | 1013.5 |
| 20260831014010 | 33 | 198 | 0.0 | 1.6 | 0.00 | 0.00 | 0.00 | 46 | 1013.4 |
| 20260831013510 | 33 | 198 | 0.0 | 1.6 | 0.00 | 0.00 | 0.00 | 46 | 1013.4 |
| 20260831013025 | 33 | 198 | 0.0 | 6.4 | 0.00 | 0.00 | 0.00 | 45 | 1013.4 |
| 20260831012510 | 34 | 198 | 0.0 | 6.4 | 0.00 | 0.00 | 0.00 | 45 | 1013.3 |
| 20260831012004 | 34 | 201 | 0.0 | 1.6 | 0.00 | 0.00 | 0.00 | 45 | 1013.3 |
| 20260831011507 | 34 | 201 | 0.0 | 1.6 | 0.00 | 0.00 | 0.00 | 45 | 1013.3 |
| 20260831011002 | 35 | 202 | 0.0 | 3.2 | 0.00 | 0.00 | 0.00 | 44 | 1013.3 |
| 20260831010503 | 35 | 202 | 0.0 | 3.2 | 0.00 | 0.00 | 0.00 | 44 | 1013.2 |
| 20260831010015 | 35 | 202 | 0.0 | 1.6 | 0.00 | 0.00 | 0.00 | 44 | 1013.2 |
| 20260831005504 | 35 | 202 | 0.0 | 3.2 | 0.00 | 0.00 | 0.00 | 43 | 1013.2 |
| 20260831005006 | 35 | 202 | 0.0 | 4.8 | 0.00 | 0.00 | 0.00 | 42 | 1013.1 |
| 20260831004512 | 36 | 204 | 0.0 | 4.8 | 0.00 | 0.00 | 0.00 | 42 | 1013.1 |
| 20260831004004 | 36 | 188 | 0.0 | 4.8 | 0.00 | 0.00 | 0.00 | 40 | 1013.1 |
| 20260831003508 | 36 | 188 | 0.0 | 1.6 | 0.00 | 0.00 | 0.00 | 40 | 1013.1 |
| 20260831003012 | 36 | 186 | 0.0 | 3.2 | 0.00 | 0.00 | 0.00 | 40 | 1013.1 |
| 20260831002505 | 36 | 185 | 0.0 | 3.2 | 0.00 | 0.00 | 0.00 | 40 | 1013.1 |
| 20260831002006 | 36 | 184 | 0.0 | 4.8 | 0.00 | 0.00 | 0.00 | 39 | 1013.1 |
| 20260831001504 | 36 | 173 | 0.0 | 4.8 | 0.00 | 0.00 | 0.00 | 39 | 1013.1 |
| 20260831001003 | 37 | 173 | 0.0 | 12.9 | 0.00 | 0.00 | 0.00 | 39 | 1013.2 |
| 20260831000503 | 37 | 193 | 0.0 | 12.9 | 0.00 | 0.00 | 0.00 | 39 | 1013.2 |
| 20260831000005 | 37 | 206 | 0.0 | 12.9 | 0.00 | 0.00 | 0.00 | 38 | 1013.3 |
| 20260830235503 | 37 | 204 | 0.0 | 11.3 | 0.00 | 0.00 | 0.00 | 38 | 1013.3 |
| 20260830235002 | 37 | 188 | 3.2 | 9.7 | 0.00 | 0.00 | 0.00 | 38 | 1013.2 |
| 20260830234510 | 37 | 150 | 3.2 | 11.3 | 0.00 | 0.00 | 0.00 | 37 | 1013.3 |
| 20260830234005 | 37 | 207 | 0.0 | 11.3 | 0.00 | 0.00 | 0.00 | 37 | 1013.3 |
| 20260830233504 | 37 | 161 | 1.6 | 12.9 | 0.00 | 0.00 | 0.00 | 37 | 1013.3 |
| 20260830233019 | 37 | 158 | 3.2 | 16.1 | 0.00 | 0.00 | 0.00 | 37 | 1013.3 |
| 20260830232504 | 37 | 183 | 0.0 | 16.1 | 0.00 | 0.00 | 0.00 | 38 | 1013.4 |
| 20260830232006 | 38 | 180 | 3.2 | 14.5 | 0.00 | 0.00 | 0.00 | 37 | 1013.4 |
| 20260830231514 | 38 | 200 | 1.6 | 14.5 | 0.00 | 0.00 | 0.00 | 36 | 1013.4 |
| 20260830231005 | 38 | 182 | 1.6 | 14.5 | 0.00 | 0.00 | 0.00 | 37 | 1013.4 |
| 20260830230507 | 38 | 173 | 0.0 | 17.7 | 0.00 | 0.00 | 0.00 | 36 | 1013.5 |
| 20260830230004 | 38 | 161 | 3.2 | 17.7 | 0.00 | 0.00 | 0.00 | 36 | 1013.5 |
| 20260830225503 | 38 | 192 | 4.8 | 12.9 | 0.00 | 0.00 | 0.00 | 35 | 1013.5 |
| 20260830225005 | 38 | 169 | 1.6 | 12.9 | 0.00 | 0.00 | 0.00 | 34 | 1013.6 |
| 20260830224503 | 38 | 208 | 3.2 | 12.9 | 0.00 | 0.00 | 0.00 | 35 | 1013.6 |
| 20260830224003 | 38 | 207 | 4.8 | 12.9 | 0.00 | 0.00 | 0.00 | 36 | 1013.5 |
| 20260830223506 | 38 | 178 | 0.0 | 17.7 | 0.00 | 0.00 | 0.00 | 35 | 1013.6 |
| 20260830223012 | 38 | 214 | 0.0 | 17.7 | 0.00 | 0.00 | 0.00 | 35 | 1013.6 |
| 20260830222506 | 39 | 169 | 1.6 | 11.3 | 0.00 | 0.00 | 0.00 | 34 | 1013.6 |
| 20260830222012 | 39 | 159 | 1.6 | 11.3 | 0.00 | 0.00 | 0.00 | 34 | 1013.6 |
| 20260830221515 | 39 | 190 | 1.6 | 16.1 | 0.00 | 0.00 | 0.00 | 34 | 1013.6 |
| 20260830221007 | 39 | 170 | 4.8 | 16.1 | 0.00 | 0.00 | 0.00 | 34 | 1013.6 |
| 20260830220507 | 39 | 147 | 1.6 | 16.1 | 0.00 | 0.00 | 0.00 | 35 | 1013.6 |
| 20260830220018 | 39 | 175 | 6.4 | 22.5 | 0.00 | 0.00 | 0.00 | 34 | 1013.6 |
| 20260830215508 | 39 | 142 | 1.6 | 22.5 | 0.00 | 0.00 | 0.00 | 34 | 1013.6 |
| 20260830215010 | 39 | 179 | 1.6 | 17.7 | 0.00 | 0.00 | 0.00 | 34 | 1013.6 |
| 20260830214517 | 39 | 221 | 0.0 | 17.7 | 0.00 | 0.00 | 0.00 | 34 | 1013.6 |
| 20260830214003 | 39 | 289 | 3.2 | 12.9 | 0.00 | 0.00 | 0.00 | 33 | 1013.8 |
| 20260830213506 | 39 | 178 | 3.2 | 17.7 | 0.00 | 0.00 | 0.00 | 34 | 1013.8 |
| 20260830213008 | 39 | 201 | 3.2 | 17.7 | 0.00 | 0.00 | 0.00 | 34 | 1013.9 |
| 20260830212504 | 39 | 159 | 3.2 | 16.1 | 0.00 | 0.00 | 0.00 | 34 | 1013.9 |
| 20260830212004 | 39 | 195 | 0.0 | 9.7 | 0.00 | 0.00 | 0.00 | 34 | 1014.0 |
| 20260830211516 | 38 | 154 | 3.2 | 12.9 | 0.00 | 0.00 | 0.00 | 35 | 1014.0 |
| 20260830211008 | 38 | 159 | 0.0 | 14.5 | 0.00 | 0.00 | 0.00 | 34 | 1014.1 |
| 20260830210508 | 38 | 141 | 4.8 | 16.1 | 0.00 | 0.00 | 0.00 | 35 | 1014.2 |
| 20260830210028 | 38 | 233 | 1.6 | 16.1 | 0.00 | 0.00 | 0.00 | 35 | 1014.2 |
| 20260830205513 | 38 | 146 | 6.4 | 22.5 | 0.00 | 0.00 | 0.00 | 34 | 1014.2 |
| 20260830205006 | 38 | 169 | 8.0 | 22.5 | 0.00 | 0.00 | 0.00 | 35 | 1014.3 |
| 20260830204527 | 38 | 161 | 3.2 | 14.5 | 0.00 | 0.00 | 0.00 | 36 | 1014.3 |
| 20260830204008 | 38 | 190 | 4.8 | 16.1 | 0.00 | 0.00 | 0.00 | 37 | 1014.3 |
| 20260830203508 | 38 | 135 | 4.8 | 17.7 | 0.00 | 0.00 | 0.00 | 38 | 1014.4 |
| 20260830203025 | 38 | 180 | 1.6 | 17.7 | 0.00 | 0.00 | 0.00 | 38 | 1014.5 |
| 20260830202504 | 38 | 162 | 8.0 | 19.3 | 0.00 | 0.00 | 0.00 | 37 | 1014.5 |
| 20260830202004 | 38 | 140 | 8.0 | 20.9 | 0.00 | 0.00 | 0.00 | 37 | 1014.7 |
| 20260830201508 | 38 | 155 | 8.0 | 20.9 | 0.00 | 0.00 | 0.00 | 37 | 1014.7 |
| 20260830201004 | 38 | 154 | 8.0 | 20.9 | 0.00 | 0.00 | 0.00 | 37 | 1014.9 |
| 20260830200504 | 38 | 157 | 3.2 | 14.5 | 0.00 | 0.00 | 0.00 | 37 | 1015.1 |
| 20260830200015 | 38 | 163 | 4.8 | 14.5 | 0.00 | 0.00 | 0.00 | 37 | 1015.2 |
| 20260830195506 | 38 | 156 | 1.6 | 16.1 | 0.00 | 0.00 | 0.00 | 38 | 1015.2 |
| 20260830195008 | 38 | 177 | 0.0 | 19.3 | 0.00 | 0.00 | 0.00 | 39 | 1015.3 |
| 20260830194523 | 38 | 163 | 9.7 | 25.7 | 0.00 | 0.00 | 0.00 | 39 | 1015.4 |
| 20260830194007 | 37 | 146 | 8.0 | 25.7 | 0.00 | 0.00 | 0.00 | 39 | 1015.4 |
| 20260830193510 | 38 | 118 | 8.0 | 22.5 | 0.00 | 0.00 | 0.00 | 39 | 1015.4 |
| 20260830193018 | 38 | 107 | 6.4 | 17.7 | 0.00 | 0.00 | 0.00 | 40 | 1015.4 |
| 20260830192508 | 37 | 166 | 4.8 | 20.9 | 0.00 | 0.00 | 0.00 | 40 | 1015.5 |
| 20260830192008 | 37 | 157 | 6.4 | 24.1 | 0.00 | 0.00 | 0.00 | 40 | 1015.5 |
| 20260830191524 | 37 | 205 | 3.2 | 24.1 | 0.00 | 0.00 | 0.00 | 41 | 1015.6 |
| 20260830191003 | 37 | 150 | 6.4 | 22.5 | 0.00 | 0.00 | 0.00 | 41 | 1015.7 |
| 20260830190503 | 37 | 190 | 6.4 | 22.5 | 0.00 | 0.00 | 0.00 | 41 | 1015.7 |
| 20260830190011 | 37 | 166 | 6.4 | 22.5 | 0.00 | 0.00 | 0.00 | 42 | 1015.7 |
| 20260830185514 | 37 | 130 | 6.4 | 29.0 | 0.00 | 0.00 | 0.00 | 43 | 1015.8 |
| 20260830185008 | 37 | 148 | 3.2 | 29.0 | 0.00 | 0.00 | 0.00 | 43 | 1015.8 |
| 20260830184518 | 37 | 118 | 8.0 | 24.1 | 0.00 | 0.00 | 0.00 | 43 | 1015.8 |
| 20260830184007 | 37 | 169 | 8.0 | 25.7 | 0.00 | 0.00 | 0.00 | 43 | 1015.8 |
| 20260830183510 | 37 | 159 | 4.8 | 25.7 | 0.00 | 0.00 | 0.00 | 43 | 1015.9 |
| 20260830183023 | 37 | 138 | 6.4 | 19.3 | 0.00 | 0.00 | 0.00 | 42 | 1015.9 |
| 20260830182512 | 37 | 164 | 6.4 | 20.9 | 0.00 | 0.00 | 0.00 | 44 | 1016.0 |
| 20260830182011 | 37 | 149 | 6.4 | 20.9 | 0.00 | 0.00 | 0.00 | 43 | 1016.1 |
| 20260830181524 | 37 | 147 | 6.4 | 16.1 | 0.00 | 0.00 | 0.00 | 44 | 1016.2 |
| 20260830181009 | 37 | 179 | 1.6 | 14.5 | 0.00 | 0.00 | 0.00 | 43 | 1016.2 |
| 20260830180512 | 37 | 193 | 1.6 | 14.5 | 0.00 | 0.00 | 0.00 | 44 | 1016.3 |
| 20260830180025 | 37 | 198 | 4.8 | 17.7 | 0.00 | 0.00 | 0.00 | 46 | 1016.4 |
| 20260830175505 | 37 | 159 | 6.4 | 17.7 | 0.00 | 0.00 | 0.00 | 45 | 1016.5 |
| 20260830175003 | 37 | 155 | 4.8 | 19.3 | 0.00 | 0.00 | 0.00 | 44 | 1016.5 |
| 20260830174514 | 37 | 200 | 0.0 | 19.3 | 0.00 | 0.00 | 0.00 | 46 | 1016.6 |
| 20260830174004 | 37 | 178 | 3.2 | 16.1 | 0.00 | 0.00 | 0.00 | 46 | 1016.6 |
| 20260830173510 | 37 | 198 | 1.6 | 12.9 | 0.00 | 0.00 | 0.00 | 45 | 1016.7 |
| 20260830173018 | 37 | 156 | 6.4 | 12.9 | 0.00 | 0.00 | 0.00 | 46 | 1016.8 |
| 20260830172514 | 37 | 198 | 1.6 | 16.1 | 0.00 | 0.00 | 0.00 | 47 | 1016.9 |
| 20260830172011 | 37 | 177 | 1.6 | 19.3 | 0.00 | 0.00 | 0.00 | 48 | 1017.0 |
| 20260830171526 | 37 | 194 | 1.6 | 19.3 | 0.00 | 0.00 | 0.00 | 46 | 1017.1 |
| 20260830171012 | 37 | 163 | 3.2 | 14.5 | 0.00 | 0.00 | 0.00 | 46 | 1017.1 |